GW2818 Weather Reports


Display with metric or nautical units.
time (UTC)temp
F
wind
direction
speed
MPH
gust
MPH
rain 1hr
in
rain 24hr
in
rain mn
in
humidity
%
barometer
mb
20260507051541 46 0 0.0 0.0 0.00 0.51 0.00 74 1014.4
20260507050041 47 0 0.0 0.0 0.00 0.51 0.00 73 1014.5
20260507044538 47 0 0.0 0.0 0.00 0.52 0.00 73 1014.3
20260507043035 47 0 0.0 0.0 0.00 0.52 0.00 73 1014.3
20260507041552 47 0 0.0 0.0 0.00 0.52 0.00 75 1014.3
20260507040041 47 0 0.0 0.0 0.00 0.52 0.00 75 1014.3
20260507034538 47 0 0.0 0.0 0.00 0.52 0.52 73 1014.2
20260507033042 47 0 0.0 0.0 0.00 0.52 0.52 71 1014.0
20260507031536 48 0 0.0 0.0 0.00 0.52 0.52 71 1014.1
20260507030037 48 0 0.0 0.0 0.00 0.52 0.52 70 1013.8
20260507024542 48 0 0.0 0.0 0.00 0.52 0.52 69 1013.8
20260507023041 49 0 0.0 0.0 0.00 0.52 0.52 70 1013.8
20260507021539 49 0 0.0 0.0 0.00 0.52 0.52 70 1013.4
20260507020039 49 0 0.0 1.0 0.00 0.52 0.52 69 1013.3
20260507014550 49 0 0.0 0.0 0.00 0.52 0.52 69 1013.0
20260507013044 50 0 0.0 1.0 0.00 0.52 0.52 68 1012.9
20260507011542 50 0 0.0 1.0 0.00 0.52 0.52 68 1012.8
20260507010042 50 0 0.0 0.0 0.00 0.52 0.52 71 1012.9
20260507004540 50 0 0.0 2.0 0.00 0.52 0.52 67 1013.2
20260507003039 51 0 0.0 0.0 0.00 0.52 0.52 66 1013.0
20260507001555 51 0 0.0 3.0 0.00 0.52 0.52 68 1013.1
20260507000041 51 0 0.0 0.0 0.00 0.52 0.52 68 1013.0
20260506234541 52 0 0.0 2.0 0.00 0.52 0.52 68 1012.9
20260506233044 52 236 0.0 4.0 0.00 0.52 0.52 67 1012.7
20260506231544 53 0 0.0 3.0 0.00 0.52 0.52 68 1012.5
20260506230037 53 0 0.0 1.0 0.00 0.52 0.52 68 1012.5
20260506224535 54 0 0.0 2.0 0.00 0.52 0.52 70 1011.9
20260506223058 54 0 0.0 2.0 0.00 0.52 0.52 68 1012.1
20260506221538 54 0 0.0 2.0 0.00 0.52 0.52 72 1011.9
20260506220038 55 0 0.0 1.0 0.00 0.52 0.52 72 1011.6
20260506214540 54 0 0.0 2.0 0.00 0.52 0.52 76 1011.6
20260506213038 54 0 0.0 1.0 0.00 0.52 0.52 76 1011.5
20260506211545 54 226 0.0 4.0 0.00 0.52 0.52 75 1011.4
20260506210042 54 0 0.0 3.0 0.00 0.52 0.52 75 1011.2
20260506204538 55 233 0.0 2.0 0.00 0.52 0.52 76 1010.7
20260506203043 54 0 0.0 2.0 0.00 0.52 0.52 80 1010.9
20260506201537 54 60 0.0 2.0 0.00 0.52 0.52 76 1010.9
20260506200044 54 0 0.0 2.0 0.00 0.52 0.52 80 1010.9
20260506194542 53 0 0.0 3.0 0.00 0.52 0.52 82 1011.0
20260506193040 53 0 0.0 1.0 0.00 0.52 0.52 83 1011.1
20260506191538 54 0 0.0 1.0 0.00 0.52 0.52 83 1011.0
20260506190038 52 0 0.0 3.0 0.00 0.52 0.52 84 1011.1
20260506184550 53 245 0.0 2.0 0.00 0.52 0.52 85 1010.9
20260506183041 53 67 0.0 4.0 0.00 0.52 0.52 84 1010.8
20260506181542 54 0 0.0 3.0 0.00 0.52 0.52 83 1010.7
20260506180048 55 0 1.0 5.0 0.00 0.52 0.52 82 1010.7
20260506174538 54 0 0.0 2.0 0.00 0.52 0.52 86 1010.6
20260506173037 54 0 0.0 3.0 0.00 0.52 0.52 85 1010.7
20260506171547 54 0 0.0 3.0 0.00 0.52 0.52 87 1010.4
20260506170042 51 0 0.0 3.0 0.00 0.52 0.52 91 1010.5
20260506164539 51 0 0.0 1.0 0.00 0.52 0.52 93 1010.6
20260506163046 50 0 0.0 0.0 0.00 0.52 0.52 93 1010.3
20260506161549 50 41 0.0 4.0 0.00 0.52 0.52 93 1010.2
20260506160037 50 252 0.0 2.0 0.00 0.52 0.52 94 1010.0
20260506154544 50 0 0.0 3.0 0.00 0.52 0.52 94 1010.0
20260506153043 50 0 0.0 2.0 0.00 0.52 0.52 95 1009.6
20260506151540 50 0 0.0 0.0 0.00 0.52 0.52 96 1009.4
20260506150038 49 0 0.0 3.0 0.00 0.52 0.52 95 1009.3
20260506144538 49 0 0.0 1.0 0.00 0.52 0.52 96 1009.0
20260506143042 49 0 0.0 1.0 0.00 0.52 0.52 96 1008.7
20260506141539 49 0 0.0 2.0 0.01 0.52 0.52 96 1008.6
20260506140045 48 0 0.0 1.0 0.01 0.52 0.52 96 1008.3
20260506134608 48 0 0.0 3.0 0.01 0.52 0.52 95 1008.2
20260506133036 48 256 0.0 2.0 0.01 0.52 0.52 95 1008.1
20260506131543 48 0 0.0 4.0 0.00 0.52 0.52 95 1008.1
20260506130034 49 240 0.0 4.0 0.01 0.52 0.52 95 1008.0
20260506124540 50 0 0.0 1.0 0.02 0.52 0.52 96 1006.7
20260506123044 50 0 0.0 0.0 0.06 0.52 0.52 95 1007.0
20260506121539 51 0 0.0 1.0 0.07 0.52 0.52 95 1007.2
20260506120035 51 34 1.0 4.0 0.07 0.51 0.51 95 1007.4
20260506114547 54 0 0.0 4.0 0.07 0.50 0.50 95 1007.2
20260506113042 56 0 0.0 3.0 0.07 0.46 0.46 95 1006.2
20260506111539 56 0 0.0 1.0 0.09 0.45 0.45 95 1006.0
20260506110038 55 221 0.0 1.0 0.12 0.44 0.44 95 1006.0
20260506104536 55 0 0.0 2.0 0.12 0.42 0.42 96 1006.1
20260506103036 55 0 0.0 0.0 0.12 0.39 0.39 96 1006.4
20260506101533 55 0 0.0 0.0 0.12 0.36 0.36 96 1006.3
20260506100039 55 0 0.0 1.0 0.11 0.32 0.32 96 1006.2
20260506094539 55 0 0.0 3.0 0.12 0.29 0.29 96 1006.1
20260506093037 55 0 0.0 1.0 0.13 0.27 0.27 96 1006.2
20260506091537 55 160 0.0 1.0 0.12 0.24 0.24 96 1006.4
20260506090041 56 0 0.0 4.0 0.10 0.20 0.20 96 1006.7
20260506084541 56 0 0.0 1.0 0.07 0.17 0.17 96 1006.9
20260506083042 56 83 0.0 3.0 0.04 0.14 0.14 96 1006.7
20260506081546 56 0 0.0 2.0 0.02 0.12 0.12 96 1006.7
20260506073041 56 0 0.0 1.0 0.02 0.11 0.10 95 1006.5
20260506071543 56 0 0.0 0.0 0.03 0.11 0.10 95 1006.8
20260506061540 57 0 0.0 0.0 0.04 0.13 0.07 94 1007.7